Regional Weather Roundup
Issued by NWS

Home | Current Version | Previous Version | Graphics & Text | Print | Product List | Glossary On
Versions: 1 2 3 4 5 6 7 8 9 10 11 12 13 14 15 16 17 18 19 20 21 22 23 24 25 26 27 28 29 30 31 32 33 34 35 36 37 38 39 40 41 42 43 44 45 46 47 48 49 50
000
ASUS43 KMKX 241011
RWRWI

WISCONSIN REGIONAL WEATHER ROUNDUP
NATIONAL WEATHER SERVICE MILWAUKEE/SULLIVAN WI
500 AM CDT SAT JUN 24 2017

NOTE: "FAIR" INDICATES FEW OR NO CLOUDS BELOW 12,000 FEET WITH NO
SIGNIFICANT WEATHER AND/OR OBSTRUCTIONS TO VISIBILITY.

WIZ001-002-006>008-014>016-023>028-241100-
NORTHWEST WISCONSIN

CITY           SKY/WX    TMP DP  RH WIND       PRES   REMARKS
SUPERIOR ARPT  NOT AVBL
ASHLAND        CLOUDY    54  49  83 W9        29.86R
HAYWARD        CLOUDY    54  48  80 VRB5      29.89S
SIREN          CLEAR     51  46  83 CALM      29.92S
CUMBERLAND     CLEAR     50  45  81 W8        29.92S
RICE LAKE      CLEAR     52  46  79 W5        29.93S
CHETEK         CLEAR     53  47  79 NW8       29.92R
LADYSMITH      MOCLDY    55  50  85 W8        29.91R
EAU CLAIRE     PTCLDY    54  50  86 W7        29.92R
MENOMONIE      CLEAR     53  50  88 W7        29.93S
NEW RICHMOND   CLEAR     49  47  93 CALM      29.95R
OSCEOLA        PTCLDY    51  51  98 W7        29.97R
$$

WIZ003>005-009-010-017-018-241100-
NORTH CENTRAL WISCONSIN

CITY           SKY/WX    TMP DP  RH WIND       PRES   REMARKS
MANITOWISH WTR CLOUDY    54  53  96 NW6       29.85R
ARBOR VITAE    CLOUDY    57  52  83 NW5       29.84R
WOODRUFF       CLOUDY    57  52  83 NW5       29.84R
RHINELANDER    CLOUDY    55  52  89 W8        29.85R
EAGLE RIVER    CLOUDY    55  49  80 W6        29.83R
LAND O LAKES   CLOUDY    56  51  82 NW5G16    29.84R
PHILLIPS       CLOUDY    53  50  89 W3        29.87R
TOMAHAWK       NOT AVBL
MEDFORD        CLOUDY    52  49  90 W8        29.89R
MERRILL        CLOUDY    55  53  92 W5        29.87R
$$

WIZ029-030-035-036-043>047-241100-
CENTRAL WISCONSIN

CITY           SKY/WX    TMP DP  RH WIND       PRES   REMARKS
WAUSAU         MOCLDY    56  52  86 W10       29.86R
MOSINEE        MOCLDY    54  52  94 W10       29.89R
MARSHFIELD     MOCLDY    54  49  83 NW10      29.89R
STEVENS POINT  CLOUDY    56  53  92 NW5       29.88S
WAUPACA        MOCLDY    60  56  84 W6        29.87R
WAUTOMA        CLOUDY    58  54  86 W6        29.89R
WISC RAPIDS    CLOUDY    57  51  80 NW9       29.90R
CAMP DOUGLAS   PTCLDY    55  51  89 W8        29.91R
$$

WIZ011>013-019>022-031-037>040-048>050-241100-
NORTHEAST WISCONSIN

CITY           SKY/WX    TMP DP  RH WIND       PRES   REMARKS
ANTIGO         CLOUDY    54  53  97 W6        29.86R
SHAWANO        CLOUDY    60  54  82 W7        29.84R
OCONTO         CLOUDY    56  53  88 W6        29.81R
STURGEON BAY     N/A     60  53  77 W8          N/A
GREEN BAY      CLOUDY    60  55  83 W12       29.84R
MANITOWOC      CLOUDY    61  53  75 W9        29.83R
APPLETON       CLOUDY    57  50  77 W9        29.84R
CLINTONVILLE   CLOUDY    59  52  77 NW9       29.85R
OSHKOSH        CLOUDY    60  53  77 W10       29.86R
$$

WIZ032>034-041-042-053>061-241100-
SOUTHWEST WISCONSIN

CITY           SKY/WX    TMP DP  RH WIND       PRES   REMARKS
LA CROSSE      PTCLDY    61  53  75 W6        29.94R
SPARTA         PTCLDY    55  52  90 SW5       29.94R
VIROQUA        PTCLDY    55  54  96 W5        29.94S
BOSCOBEL       PTCLDY    59  53  80 W5        29.94R
PRAIRIE DU CHI PTCLDY    58  49  73 NW6       29.96R
PLATTEVILLE    CLEAR     56  55  94 W7        29.95R
$$

WIZ056-057-062-063-064-067-068-241100-
SOUTH CENTRAL WISCONSIN

CITY           SKY/WX    TMP DP  RH WIND       PRES   REMARKS
REEDSBURG      PTCLDY    56  55  94 W3        29.91S
BARABOO/DELLS  PTCLDY    56  52  86 W7        29.91R
LONE ROCK      CLEAR     58  52  80 W6        29.92R
MINERAL POINT  CLEAR     57  55  94 W7        29.93S
MADISON        CLEAR     58  54  86 NW5       29.90R
MIDDLETON      CLEAR     58  55  89 W6        29.91R
WATERTOWN      CLEAR     58  54  86 W8        29.88S
MONROE         CLEAR     57  52  82 W10       29.92S
JANESVILLE     CLEAR     59  55  88 W7        29.90R
$$

WIZ051-052-058>065-066-070>072-241100-
SOUTHEAST WISCONSIN

CITY           SKY/WX    TMP DP  RH WIND       PRES   REMARKS
MILWAUKEE      PTCLDY    63  54  72 W9        29.86S
WAUKESHA       CLEAR     55  52  88 NW10      29.89R
MILWAUKEE/TIMM CLEAR     57  50  77 W8        29.87S
RACINE         CLEAR     60  53  77 W8        29.88R
KENOSHA        CLEAR     59  54  83 W9        29.88R
FOND DU LAC    MOCLDY    59  52  77 W9        29.87R
SHEBOYGAN      CLOUDY    60  55  83 W8        29.84R
WEST BEND      PTCLDY    57  54  88 W9        29.86S
JUNEAU         PTCLDY    58  53  83 W6        29.89S
$$

LSZ147-162-241100-
LAKE SUPERIOR

STATION/POSITION TIME  TEMP    WIND        PRES    WAVE
                       AIR SEA DIR/SP/G            HT/PER
                 (UTC) (F)     (DEG/KT/KT) (MB)    (FT/S)
W MID LAKE BUOY  0950   44 39  260/ 10/ 10 1009.4R   1/ 3
DEVILS ISLAND    0900   53     250/ 14/ 17 1010.2R
SAXON HARBOR     0930   57     250/  4/  7 1010.5R
$$

LMZ867-665-643>646-241100-
LAKE MICHIGAN

STATION/POSITION TIME  TEMP    WIND        PRES    WAVE
                       AIR SEA DIR/SP/G            HT/PER
                 (UTC) (F)     (DEG/KT/KT) (MB)    (FT/S)
CHAMBERS ISLAND  0940   58     290/  5/ 10 1008.5R
S GREEN BAY BUOY 1000   60     280/ 14/ 16 1009.3
N MID LAKE BUOY  0950   58 56  270/  6/  8 1008.9R   1
NORTHPORT PIER   0940   61     300/ 12/ 17 1008.8R
KEWAUNEE LAKESHO 0948   59     290/  6/ 10 1009.2R
SHEBOYGAN LAKESH 1000   61     280/ 15/ 18 1009.8R
PORT WASHINGTON  0930   62     280/  7/ 11 1011.5R
ATWATER BUOY     0809   62 60  270/ 12/ 14 1010.5R
MILWAUKEE LAKESH 0950   62     290/  9/ 12   N/A
S MID LAKE BUOY  0850   63 61  310/ 14/ 17 1010.1R   2/ 4
KENOSHA   LAKESH 1000   62     290/  9/ 14 1011.5
$$

TC  - TEMPERATURE IN CELSIUS
VSB - VISIBILITY IN STATUTE MILES
WCI - WIND CHILL INDEX
HX  - HEAT INDEX





USA.gov is the U.S. government's official web portal to all federal, state and local government web resources and services.